This demonstration page uses our WeatherBlox Daily Observations layout. Learn more.

Left ArrowRight Arrow

39.01783, -85.05884

Hourly Observations for October 21, 2018

Temp ( °F °C ) Dew Point ( °F °C ) Humidity (%) Winds ( mph kmh ) Pressure ( in mb ) Visibility ( mi km ) Precip ( " mm )
12:33 am 00:33 Mostly Cloudy 39 3.9 30 -1.1 70 70 NW 14 22 30.27 1025 10 16 N/A
12:52 am 00:52 Partly Cloudy 39 3.9 30 -1.1 70 70 NNW 15 24 30.24 1024 10 16 N/A
1:52 am 01:52 Mostly Cloudy 37 2.8 30 -1.1 76 76 WNW 10 17 30.25 1025 10 16 N/A
2:03 am 02:03 Partly Cloudy 37 2.8 30 -1.1 76 76 WNW 10 17 30.33 1027 10 16 N/A
2:52 am 02:52 Partly Cloudy 35 1.7 30 -1.1 82 82 WNW 9 15 30.27 1025 10 16 N/A
3:52 am 03:52 Mostly Cloudy 36 2.2 31 -0.6 82 82 NW 8 13 30.29 1026 10 16 N/A
4:52 am 04:52 Cloudy 38 3.3 32 undefined 79 79 NNW 6 9 30.29 1026 10 16 N/A
5:52 am 05:52 Cloudy 37 2.8 28 -2.2 70 70 WNW 12 19 30.31 1027 10 16 N/A
6:52 am 06:52 Mostly Cloudy 35 1.7 26 -3.3 70 70 NW 8 13 30.34 1027 10 16 N/A
7:52 am 07:52 Partly Cloudy 32 undefined 26 -3.3 79 79 W 3 6 30.36 1028 10 16 N/A
8:52 am 08:52 Partly Cloudy 34 1.1 26 -3.3 73 73 NW 6 9 30.39 1029 10 16 N/A
9:52 am 09:52 Mostly Sunny 38 3.3 28 -2.2 68 68 NNW 7 11 30.41 1030 10 16 N/A
10:52 am 10:52 Partly Cloudy 41 5 28 -2.2 60 60 N 8 13 30.40 1029 10 16 N/A
11:52 am 11:52 Partly Cloudy 44 6.7 28 -2.2 53 53 N 8 13 30.37 1029 10 16 N/A
12:52 pm 12:52 Mostly Sunny 44 6.7 28 -2.2 53 53 VRB 3 6 30.35 1028 10 16 N/A
1:52 pm 13:52 Sunny 47 8.3 30 -1.1 52 52 W 8 13 30.31 1026 10 16 N/A
2:52 pm 14:52 Sunny 49 9.4 29 -1.7 46 46 N N/A 30.30 1026 10 16 N/A
3:52 pm 15:52 Sunny 50 10 29 -1.7 44 44 VRB 3 6 30.28 1025 10 16 N/A
4:52 pm 16:52 Sunny 50 10 29 -1.7 44 44 WSW 7 11 30.27 1025 10 16 N/A
5:52 pm 17:52 Sunny 50 10 28 -2.2 43 43 WSW 6 9 30.27 1025 10 16 N/A
6:52 pm 18:52 Clear 47 8.3 29 -1.7 50 50 WSW 3 6 30.27 1025 10 16 N/A
7:52 pm 19:52 Clear 42 5.6 31 -0.6 65 65 S 3 6 30.26 1025 10 16 N/A
8:52 pm 20:52 Clear 39 3.9 32 undefined 76 76 SSW 6 9 30.26 1025 10 16 N/A
9:52 pm 21:52 Clear 36 2.2 33 0.6 89 89 S 6 9 30.24 1024 10 16 N/A
10:52 pm 22:52 Clear 39 3.9 31 -0.6 73 73 S 3 6 30.23 1024 10 16 N/A
11:52 pm 23:52 Clear 37 2.8 31 -0.6 79 79 S 6 9 30.22 1023 10 16 N/A

Powered by AerisWeather